Weather in Krasitskoye

Russia / Khabarovsk Krai     47°38′28″N   134°52′53″E
temp.,
°C
wind,
m/s
gust,
m/s
humid.,
%
clouds,
%
prec.,
mm/h
press.,
hPa
HPBL,
m
27 february, sat
sat2701:00−21ssw22970 0.0 103520
04:00−22ssw22940 0.0 103520
07:00−22sse23920 0.0 103621
10:00−17s23880 0.0 1035160
13:00−10sse357962 0.0 1033465
16:00−7sse477874 0.0 1029581
19:00−9sse488398 0.0 1025176
22:00−9s238599 0.0 102341
28 february, sun
sun2801:00−8ssw1182100 0.0 102135
04:00−6ssw31487100 0.0 1019606
07:00−3sw71495100 1.6 1018768
10:00−2w71095100 2.9 1019684
13:00−5w61086100 0.2 1020643
16:00−8w71275100 0.2 1022727
19:00−11w51180100 0.0 1024508
22:00−13wsw41083100 0.0 1027268
1 march, mon
mon101:00−17wsw4888100 0.0 1027145
04:00−21wsw449167 0.0 102966
07:00−23sw47910 0.0 1032100
10:00−20wsw59850 0.0 1033348
13:00−16w58730 0.0 1033593
16:00−14w57680 0.0 10331006
19:00−19wsw34780 0.0 103346
22:00−21sw34870 0.0 103448
2 march, tue
tue201:00−22sw238227 0.0 103420
04:00−22ssw238456 0.0 103322
07:00−23sw1186100 0.0 103420
10:00−20w229179 0.0 1033128
13:00−16wnw23760 0.0 1031405
16:00−15nw34700 0.0 1030561
19:00−21w22830 0.0 103120
22:00−23ssw22790 0.0 103320
3 march, wed
wed301:00−24ssw11830 0.0 103120
04:00−25sse11850 0.0 103120
07:00−24se23850 0.0 103120
10:00−18se36810 0.0 1029203
13:00−12se36710 0.0 1026549
16:00−8sse366950 0.0 1022701
19:00−10s3378100 0.0 102080
22:00−12wsw1193100 0.1 101921